TimeMDT,TemperatureF,Dew PointF,Humidity,Sea Level PressureIn,VisibilityMPH,Wind Direction,Wind SpeedMPH,Gust SpeedMPH,PrecipitationIn,Events,Conditions,WindDirDegrees,DateUTC
12:16 AM,55.4,51.8,88,30.41,10.0,Calm,Calm,-,N/A,,Mostly Cloudy,0,2013-08-31 06:16:00
12:36 AM,59.0,50.0,72,30.40,10.0,SSE,5.8,-,N/A,,Mostly Cloudy,150,2013-08-31 06:36:00
12:56 AM,59.0,50.0,72,30.39,10.0,NE,4.6,-,N/A,,Mostly Cloudy,40,2013-08-31 06:56:00
1:16 AM,55.4,50.0,82,30.39,10.0,East,3.5,-,N/A,,Scattered Clouds,80,2013-08-31 07:16:00
1:36 AM,55.4,50.0,82,30.39,10.0,Calm,Calm,-,N/A,,Clear,0,2013-08-31 07:36:00
1:56 AM,55.4,50.0,82,30.39,10.0,Calm,Calm,-,N/A,,Clear,0,2013-08-31 07:56:00
2:16 AM,53.6,48.2,82,30.39,10.0,Calm,Calm,-,N/A,,Clear,0,2013-08-31 08:16:00
2:36 AM,53.6,48.2,82,30.39,10.0,Calm,Calm,-,N/A,,Clear,0,2013-08-31 08:36:00
2:56 AM,51.8,48.2,88,30.39,10.0,Calm,Calm,-,N/A,,Clear,0,2013-08-31 08:56:00
3:16 AM,51.8,46.4,82,30.39,10.0,North,4.6,-,N/A,,Clear,10,2013-08-31 09:16:00
3:36 AM,51.8,46.4,82,30.39,10.0,Calm,Calm,-,N/A,,Clear,0,2013-08-31 09:36:00
3:56 AM,51.8,48.2,88,30.39,10.0,ESE,3.5,-,N/A,,Clear,120,2013-08-31 09:56:00
4:16 AM,50.0,46.4,87,30.38,10.0,Calm,Calm,-,N/A,,Clear,0,2013-08-31 10:16:00
4:36 AM,50.0,44.6,82,30.39,10.0,Calm,Calm,-,N/A,,Clear,0,2013-08-31 10:36:00
4:56 AM,50.0,46.4,87,30.39,10.0,Calm,Calm,-,N/A,,Clear,0,2013-08-31 10:56:00
5:16 AM,50.0,44.6,82,30.39,10.0,Calm,Calm,-,N/A,,Clear,0,2013-08-31 11:16:00
5:36 AM,50.0,44.6,82,30.39,10.0,Calm,Calm,-,N/A,,Clear,0,2013-08-31 11:36:00
5:55 AM,50.0,44.6,82,30.39,10.0,East,3.5,-,N/A,,Clear,100,2013-08-31 11:55:00
6:16 AM,48.2,44.6,87,30.39,10.0,Calm,Calm,-,N/A,,Clear,0,2013-08-31 12:16:00
6:36 AM,50.0,46.4,87,30.40,10.0,Calm,Calm,-,N/A,,Clear,0,2013-08-31 12:36:00
6:56 AM,50.0,46.4,87,30.41,10.0,Calm,Calm,-,N/A,,Clear,0,2013-08-31 12:56:00
7:16 AM,50.0,46.4,87,30.41,10.0,Calm,Calm,-,N/A,,Clear,0,2013-08-31 13:16:00
7:36 AM,50.0,44.6,82,30.41,10.0,Calm,Calm,-,N/A,,Clear,0,2013-08-31 13:36:00
7:56 AM,51.8,46.4,82,30.41,10.0,SE,3.5,-,N/A,,Clear,130,2013-08-31 13:56:00
8:16 AM,53.6,46.4,77,30.42,10.0,Calm,Calm,-,N/A,,Clear,0,2013-08-31 14:16:00
8:36 AM,55.4,46.4,72,30.42,10.0,Calm,Calm,-,N/A,,Clear,0,2013-08-31 14:36:00
8:56 AM,55.4,46.4,72,30.41,10.0,Calm,Calm,-,N/A,,Clear,0,2013-08-31 14:56:00
9:16 AM,59.0,46.4,63,30.41,10.0,Calm,Calm,-,N/A,,Clear,0,2013-08-31 15:16:00
9:36 AM,60.8,46.4,59,30.40,10.0,Calm,Calm,-,N/A,,Scattered Clouds,0,2013-08-31 15:36:00
9:56 AM,60.8,46.4,59,30.40,10.0,Calm,Calm,-,N/A,,Scattered Clouds,0,2013-08-31 15:56:00
10:16 AM,64.4,44.6,49,30.39,10.0,Calm,Calm,-,N/A,,Clear,0,2013-08-31 16:16:00
10:36 AM,68.0,48.2,49,30.38,10.0,Calm,Calm,-,N/A,,Clear,0,2013-08-31 16:36:00
10:56 AM,69.8,48.2,46,30.38,10.0,Calm,Calm,-,N/A,,Clear,0,2013-08-31 16:56:00
11:16 AM,69.8,46.4,43,30.37,10.0,Calm,Calm,-,N/A,,Clear,0,2013-08-31 17:16:00
11:36 AM,71.6,46.4,41,30.36,10.0,Calm,Calm,-,N/A,,Clear,0,2013-08-31 17:36:00
11:56 AM,73.4,46.4,38,30.35,10.0,Calm,Calm,-,N/A,,Clear,0,2013-08-31 17:56:00
12:16 PM,77.0,44.6,32,30.34,10.0,Calm,Calm,-,N/A,,Clear,0,2013-08-31 18:16:00
12:36 PM,77.0,44.6,32,30.33,10.0,West,5.8,-,N/A,Thunderstorm,Clear,280,2013-08-31 18:36:00
12:56 PM,77.0,42.8,29,30.32,10.0,West,3.5,-,N/A,,Clear,260,2013-08-31 18:56:00
1:16 PM,80.6,42.8,26,30.31,10.0,NW,6.9,-,N/A,,Clear,310,2013-08-31 19:16:00
1:36 PM,77.0,44.6,32,30.31,10.0,NW,6.9,-,N/A,Rain,Light Rain,310,2013-08-31 19:36:00
1:55 PM,77.0,42.8,29,30.32,10.0,NNW,6.9,-,N/A,Rain,Light Rain,340,2013-08-31 19:55:00
2:16 PM,73.4,39.2,29,30.32,10.0,North,5.8,-,N/A,,Overcast,350,2013-08-31 20:16:00
2:36 PM,73.4,44.6,36,30.32,10.0,Calm,Calm,-,N/A,,Light Drizzle,0,2013-08-31 20:36:00
2:55 PM,73.4,46.4,38,30.31,10.0,West,3.5,-,N/A,,Overcast,260,2013-08-31 20:55:00
3:16 PM,69.8,44.6,40,30.32,10.0,WNW,5.8,-,N/A,,Mostly Cloudy,290,2013-08-31 21:16:00
3:36 PM,69.8,44.6,40,30.31,10.0,Calm,Calm,-,N/A,Rain-Thunderstorm,Light Thunderstorms and Rain,0,2013-08-31 21:36:00
3:56 PM,69.8,46.4,43,30.32,10.0,West,3.5,-,N/A,,Overcast,280,2013-08-31 21:56:00
4:16 PM,71.6,46.4,41,30.32,10.0,WSW,8.1,-,N/A,,Mostly Cloudy,250,2013-08-31 22:16:00
4:36 PM,73.4,46.4,38,30.32,10.0,Calm,Calm,-,N/A,,Mostly Cloudy,0,2013-08-31 22:36:00
4:56 PM,71.6,44.6,38,30.33,10.0,SSW,9.2,-,N/A,,Overcast,200,2013-08-31 22:56:00
5:16 PM,69.8,48.2,46,30.36,10.0,SW,6.9,-,N/A,,Overcast,220,2013-08-31 23:16:00
5:36 PM,69.8,46.4,43,30.35,10.0,SW,9.2,-,N/A,,Overcast,220,2013-08-31 23:36:00
5:56 PM,71.6,46.4,41,30.35,10.0,East,11.5,-,N/A,,Mostly Cloudy,90,2013-08-31 23:56:00
6:15 PM,71.6,42.8,35,30.34,10.0,ESE,9.2,-,N/A,,Scattered Clouds,110,2013-09-01 00:15:00
6:36 PM,69.8,42.8,38,30.33,10.0,SSW,4.6,-,N/A,,Mostly Cloudy,200,2013-09-01 00:36:00
6:56 PM,66.2,50.0,56,30.35,10.0,Calm,Calm,-,N/A,,Mostly Cloudy,0,2013-09-01 00:56:00
7:16 PM,64.4,50.0,59,30.36,10.0,SSW,4.6,-,N/A,,Mostly Cloudy,200,2013-09-01 01:16:00
7:36 PM,64.4,50.0,59,30.38,10.0,Calm,Calm,-,N/A,,Mostly Cloudy,0,2013-09-01 01:36:00
7:56 PM,64.4,50.0,59,30.38,10.0,Calm,Calm,-,N/A,,Mostly Cloudy,0,2013-09-01 01:56:00
8:16 PM,62.6,50.0,63,30.38,10.0,South,3.5,-,N/A,,Mostly Cloudy,190,2013-09-01 02:16:00
8:36 PM,60.8,50.0,68,30.36,10.0,Calm,Calm,-,N/A,,Scattered Clouds,0,2013-09-01 02:36:00
8:56 PM,60.8,50.0,68,30.35,10.0,South,3.5,-,N/A,,Clear,170,2013-09-01 02:56:00
9:16 PM,60.8,50.0,68,30.35,10.0,SE,4.6,9.2,N/A,,Mostly Cloudy,130,2013-09-01 03:16:00
9:36 PM,60.8,50.0,68,30.36,10.0,Calm,Calm,-,N/A,,Overcast,0,2013-09-01 03:36:00
9:56 PM,59.0,50.0,72,30.36,10.0,East,3.5,-,N/A,,Scattered Clouds,90,2013-09-01 03:56:00
10:16 PM,59.0,48.2,67,30.36,10.0,Calm,Calm,-,N/A,,Clear,0,2013-09-01 04:16:00
10:36 PM,59.0,50.0,72,30.36,10.0,Calm,Calm,-,N/A,,Clear,0,2013-09-01 04:36:00
10:56 PM,55.4,48.2,77,30.36,10.0,Calm,Calm,-,N/A,,Clear,0,2013-09-01 04:56:00
11:16 PM,55.4,48.2,77,30.36,10.0,Calm,Calm,-,N/A,,Clear,0,2013-09-01 05:16:00
11:36 PM,53.6,46.4,77,30.36,10.0,Calm,Calm,-,N/A,,Clear,0,2013-09-01 05:36:00
11:56 PM,51.8,46.4,82,30.36,10.0,Calm,Calm,-,N/A,,Clear,0,2013-09-01 05:56:00